QPF
0.00 0.00 0.00 0.00 0.00 0.00 0.00 0.00 0.00 0.01 0.01 0.00 0.00 0.00 0.01 0.02 0.06 0.06 0.04 0.03 0.01 0.01 0.00 0.01 0.02 0.02 0.03 0.02 0.05 0.05 0.04 0.03 0.04 0.02 0.02 0.02 0.02 0.02 0.00 0.02 0.02 0.01 0.01 0.03 0.00 0.01 0.01 0.00 0.00 0.00 0.00 0.00 0.00 0.00
0.00 0.00 0.00 0.00 0.00 0.00 0.00 0.00 0.00 0.00 0.01 0.00 0.00 0.01 0.01 0.00 0.02 0.03 0.01 0.03 0.03 0.01 0.01 0.02 0.01 0.00 0.01 0.04 0.03 0.03 0.02 0.02 0.03 0.03 0.03 0.01 0.02 0.02 0.00 0.00 0.00 0.00 0.01 0.00 0.00 0.00 0.00 0.00 0.00 0.00 0.00 0.00 0.00 0.00
0.00 0.00 0.00 0.00 0.00 0.00 0.00 0.00 0.00 0.00 0.00 0.00 0.00 0.00 0.01 0.01 0.00 0.00 0.00 0.00 0.01 0.01 0.01 0.00 0.00 0.00 0.00 0.01 0.02 0.00 0.01 0.03 0.05 0.02 0.01 0.00 0.00 0.00 0.00 0.00 0.00 0.00 0.00 0.00 0.00 0.00 0.00 0.00 0.00 0.00 0.00 0.00 0.00 0.00
0.00 0.00 0.00 0.00 0.00 0.00 0.00 0.00 0.01 0.01 0.00 0.00 0.00 0.00 0.00 0.01 0.00 0.00 0.00 0.00 0.00 0.01 0.01 0.00 0.01 0.00 0.00 0.00 0.00 0.00 0.00 0.00 0.00 0.01 0.01 0.01 0.00 0.00 0.00 0.00 0.00 0.00 0.00 0.00 0.00 0.00 0.00 0.00 0.00 0.00 0.00 0.00 0.00 0.00
0.00 0.00 0.00 0.00 0.00 0.00 0.00 0.00 0.01 0.01 0.01 0.01 0.01 0.01 0.00 0.00 0.00 0.00 0.00 0.00 0.01 0.01 0.01 0.02 0.00 0.00 0.00 0.00 0.00 0.00 0.00 0.00 0.01 0.01 0.02 0.01 0.00 0.00 0.00 0.00 0.00 0.00 0.00 0.00 0.00 0.00 0.00 0.00 0.00 0.00 0.00 0.00 0.00 0.00
0.00 0.00 0.00 0.00 0.00 0.00 0.00 0.00 0.00 0.00 0.00 0.00 0.00 0.01 0.00 0.00 0.00 0.00 0.00 0.00 0.00 0.00 0.02 0.04 0.02 0.00 0.00 0.00 0.00 0.00 0.01 0.01 0.02 0.02 0.01 0.00 0.00 0.02 0.01 0.00 0.00 0.00 0.00 0.00 0.00 0.00 0.00 0.00 0.00 0.00 0.00 0.00 0.00 0.00
0.00 0.00 0.00 0.00 0.00 0.00 0.00 0.00 0.00 0.00 0.00 0.00 0.00 0.00 0.00 0.00 0.00 0.00 0.00 0.00 0.00 0.02 0.03 0.01 0.06 0.02 0.00 0.00 0.00 0.00 0.02 0.03 0.05 0.03 0.00 0.00 0.00 0.02 0.01 0.01 0.01 0.00 0.00 0.00 0.00 0.00 0.00 0.00 0.00 0.00 0.00 0.00 0.00 0.00
0.00 0.00 0.00 0.00 0.00 0.00 0.00 0.00 0.00 0.00 0.00 0.00 0.00 0.00 0.00 0.00 0.00 0.00 0.00 0.00 0.00 0.02 0.03 0.02 0.04 0.03 0.01 0.01 0.03 0.03 0.07 0.04 0.02 0.02 0.00 0.00 0.00 0.01 0.01 0.01 0.00 0.00 0.00 0.00 0.00 0.00 0.00 0.00 0.00 0.00 0.00 0.00 0.00 0.00
0.00 0.00 0.00 0.00 0.00 0.00 0.00 0.00 0.00 0.00 0.00 0.00 0.00 0.00 0.00 0.00 0.00 0.00 0.00 0.00 0.00 0.02 0.01 0.01 0.04 0.04 0.01 0.02 0.05 0.02 0.01 0.00 0.00 0.00 0.01 0.01 0.01 0.02 0.00 0.00 0.00 0.00 0.00 0.00 0.00 0.00 0.00 0.00 0.00 0.00 0.00 0.00 0.00 0.00
0.00 0.00 0.00 0.00 0.00 0.00 0.00 0.00 0.00 0.00 0.00 0.00 0.00 0.01 0.00 0.00 0.00 0.00 0.00 0.00 0.00 0.01 0.02 0.00 0.03 0.04 0.02 0.05 0.03 0.01 0.00 0.00 0.00 0.01 0.01 0.01 0.01 0.00 0.00 0.00 0.00 0.00 0.00 0.01 0.01 0.01 0.00 0.00 0.00 0.00 0.00 0.00 0.00 0.00
0.00 0.00 0.00 0.00 0.00 0.00 0.00 0.00 0.00 0.00 0.00 0.00 0.01 0.01 0.00 0.00 0.00 0.00 0.00 0.00 0.02 0.02 0.02 0.02 0.02 0.03 0.01 0.01 0.01 0.00 0.00 0.00 0.01 0.02 0.01 0.02 0.02 0.00 0.00 0.00 0.00 0.00 0.00 0.00 0.01 0.02 0.01 0.02 0.02 0.00 0.01 0.01 0.00 0.00
0.00 0.00 0.00 0.00 0.00 0.00 0.00 0.00 0.00 0.00 0.00 0.00 0.00 0.00 0.00 0.00 0.00 0.00 0.00 0.00 0.00 0.01 0.02 0.01 0.02 0.01 0.01 0.00 0.00 0.00 0.00 0.00 0.00 0.00 0.00 0.02 0.00 0.00 0.00 0.00 0.00 0.00 0.00 0.00 0.00 0.00 0.01 0.01 0.01 0.00 0.01 0.01 0.01 0.00
0.00 0.00 0.00 0.00 0.00 0.00 0.00 0.00 0.00 0.00 0.00 0.01 0.02 0.01 0.01 0.00 0.00 0.00 0.00 0.00 0.02 0.01 0.00 0.01 0.01 0.02 0.01 0.00 0.00 0.01 0.00 0.00 0.00 0.00 0.02 0.02 0.00 0.00 0.00 0.00 0.00 0.00 0.00 0.00 0.00 0.00 0.00 0.00 0.00 0.00 0.00 0.00 0.00 0.00
0.00 0.00 0.00 0.00 0.00 0.00 0.00 0.00 0.00 0.00 0.00 0.01 0.02 0.00 0.00 0.00 0.00 0.00 0.00 0.02 0.02 0.02 0.01 0.01 0.02 0.03 0.04 0.01 0.00 0.01 0.01 0.00 0.00 0.01 0.03 0.00 0.00 0.00 0.00 0.00 0.00 0.00 0.00 0.00 0.00 0.00 0.00 0.00 0.00 0.00 0.00 0.00 0.00 0.00
0.00 0.00 0.00 0.00 0.00 0.00 0.00 0.00 0.00 0.00 0.01 0.00 0.01 0.00 0.00 0.00 0.00 0.00 0.00 0.00 0.00 0.01 0.03 0.03 0.03 0.02 0.03 0.02 0.00 0.00 0.01 0.00 0.00 0.01 0.01 0.00 0.00 0.00 0.00 0.00 0.00 0.00 0.00 0.00 0.00 0.00 0.00 0.00 0.00 0.00 0.00 0.00 0.00 0.00
0.00 0.00 0.00 0.00 0.00 0.00 0.00 0.00 0.00 0.03 0.02 0.00 0.00 0.00 0.01 0.01 0.01 0.01 0.01 0.00 0.01 0.01 0.02 0.02 0.01 0.01 0.02 0.01 0.01 0.00 0.01 0.02 0.02 0.01 0.00 0.00 0.00 0.00 0.00 0.00 0.00 0.00 0.00 0.00 0.00 0.00 0.00 0.00 0.00 0.00 0.00 0.00 0.00 0.00
0.00 0.00 0.00 0.00 0.00 0.00 0.00 0.00 0.01 0.01 0.00 0.00 0.00 0.01 0.01 0.02 0.01 0.01 0.00 0.00 0.01 0.03 0.04 0.03 0.02 0.01 0.03 0.04 0.02 0.04 0.03 0.02 0.00 0.00 0.00 0.00 0.00 0.00 0.00 0.00 0.00 0.00 0.00 0.00 0.00 0.00 0.00 0.00 0.00 0.00 0.00 0.00 0.00 0.00
0.00 0.00 0.00 0.00 0.00 0.00 0.00 0.00 0.01 0.00 0.00 0.00 0.00 0.01 0.01 0.01 0.01 0.00 0.00 0.00 0.01 0.01 0.03 0.04 0.01 0.00 0.01 0.02 0.03 0.04 0.01 0.00 0.00 0.00 0.00 0.00 0.00 0.00 0.00 0.00 0.00 0.00 0.00 0.00 0.00 0.00 0.00 0.00 0.00 0.00 0.00 0.00 0.00 0.00
0.00 0.00 0.00 0.00 0.00 0.00 0.00 0.00 0.00 0.01 0.00 0.00 0.00 0.01 0.01 0.01 0.02 0.02 0.01 0.01 0.01 0.02 0.02 0.04 0.02 0.00 0.01 0.02 0.02 0.04 0.04 0.01 0.00 0.00 0.00 0.00 0.00 0.00 0.00 0.00 0.00 0.00 0.00 0.00 0.00 0.00 0.00 0.00 0.00 0.00 0.00 0.00 0.00 0.00
0.00 0.00 0.00 0.00 0.00 0.00 0.00 0.00 0.00 0.00 0.00 0.00 0.00 0.00 0.01 0.01 0.02 0.02 0.02 0.02 0.03 0.03 0.02 0.03 0.02 0.00 0.01 0.01 0.01 0.01 0.01 0.01 0.00 0.00 0.00 0.00 0.00 0.00 0.00 0.00 0.00 0.00 0.00 0.00 0.00 0.00 0.00 0.00 0.00 0.00 0.00 0.00 0.00 0.00
0.00 0.00 0.00 0.00 0.00 0.00 0.00 0.00 0.00 0.00 0.00 0.00 0.00 0.00 0.00 0.01 0.01 0.01 0.02 0.02 0.03 0.03 0.02 0.00 0.00 0.00 0.00 0.00 0.00 0.00 0.00 0.00 0.00 0.00 0.00 0.00 0.00 0.00 0.00 0.00 0.00 0.00 0.00 0.00 0.00 0.00 0.00 0.00 0.00 0.00 0.00 0.00 0.00 0.00
0.00 0.00 0.00 0.00 0.00 0.00 0.00 0.00 0.00 0.00 0.00 0.00 0.00 0.00 0.00 0.00 0.00 0.00 0.01 0.01 0.01 0.00 0.00 0.00 0.00 0.00 0.00 0.00 0.00 0.00 0.00 0.00 0.00 0.00 0.00 0.00 0.00 0.00 0.00 0.00 0.00 0.00 0.00 0.00 0.00 0.00 0.00 0.00 0.00 0.00 0.00 0.00 0.00 0.00
0.00 0.00 0.00 0.00 0.00 0.00 0.00 0.00 0.00 0.00 0.00 0.00 0.00 0.00 0.00 0.00 0.00 0.00 0.00 0.00 0.00 0.00 0.00 0.00 0.00 0.00 0.00 0.00 0.00 0.00 0.00 0.00 0.00 0.00 0.00 0.00 0.00 0.00 0.00 0.00 0.00 0.00 0.00 0.00 0.00 0.00 0.00 0.00 0.00 0.00 0.00 0.00 0.00 0.00
0.00 0.00 0.00 0.00 0.00 0.00 0.00 0.00 0.00 0.00 0.00 0.00 0.00 0.00 0.00 0.00 0.00 0.00 0.00 0.00 0.00 0.00 0.00 0.00 0.00 0.00 0.00 0.01 0.01 0.00 0.00 0.00 0.00 0.00 0.00 0.00 0.00 0.00 0.00 0.00 0.00 0.00 0.00 0.00 0.00 0.00 0.00 0.00 0.00 0.00 0.00 0.00 0.00 0.00
0.00 0.00 0.00 0.00 0.00 0.00 0.00 0.00 0.00 0.00 0.00 0.00 0.00 0.00 0.00 0.00 0.00 0.00 0.00 0.00 0.00 0.00 0.00 0.00 0.00 0.00 0.00 0.01 0.01 0.00 0.00 0.00 0.00 0.00 0.00 0.00 0.00 0.01 0.01 0.00 0.00 0.00 0.00 0.00 0.00 0.00 0.00 0.00 0.00 0.00 0.00 0.00 0.00 0.00
0.00 0.00 0.00 0.00 0.00 0.00 0.00 0.00 0.00 0.00 0.00 0.00 0.00 0.00 0.00 0.00 0.00 0.00 0.00 0.00 0.00 0.00 0.00 0.00 0.00 0.00 0.01 0.00 0.00 0.00 0.00 0.00 0.00 0.00 0.00 0.00 0.00 0.00 0.00 0.00 0.00 0.00 0.00 0.00 0.00 0.00 0.00 0.00 0.00 0.00 0.00 0.00 0.00 0.00
0.00 0.00 0.00 0.00 0.00 0.00 0.00 0.00 0.00 0.00 0.00 0.00 0.00 0.00 0.00 0.00 0.00 0.00 0.00 0.00 0.00 0.00 0.00 0.00 0.00 0.00 0.00 0.00 0.00 0.00 0.00 0.00 0.00 0.00 0.00 0.00 0.00 0.00 0.00 0.00 0.00 0.00 0.00 0.00 0.00 0.00 0.00 0.00 0.00 0.00 0.00 0.00 0.00 0.00
0.00 0.00 0.00 0.00 0.00 0.00 0.00 0.00 0.00 0.00 0.00 0.00 0.00 0.00 0.00 0.00 0.00 0.00 0.00 0.00 0.00 0.00 0.00 0.00 0.00 0.00 0.00 0.00 0.00 0.00 0.00 0.00 0.00 0.00 0.00 0.00 0.00 0.00 0.00 0.00 0.00 0.00 0.00 0.00 0.00 0.00 0.00 0.00 0.00 0.00 0.00 0.00 0.00 0.01
0.00 0.00 0.00 0.00 0.00 0.00 0.00 0.00 0.00 0.00 0.00 0.00 0.00 0.00 0.00 0.00 0.00 0.00 0.00 0.00 0.00 0.00 0.00 0.00 0.01 0.00 0.00 0.00 0.00 0.00 0.00 0.00 0.00 0.00 0.00 0.00 0.00 0.00 0.00 0.00 0.00 0.00 0.00 0.00 0.00 0.00 0.00 0.00 0.00 0.00 0.00 0.00 0.00 0.01
0.00 0.00 0.00 0.00 0.00 0.00 0.00 0.00 0.00 0.00 0.00 0.00 0.00 0.00 0.00 0.00 0.00 0.00 0.00 0.00 0.00 0.00 0.00 0.01 0.00 0.00 0.00 0.01 0.01 0.00 0.00 0.00 0.00 0.00 0.00 0.00 0.00 0.00 0.00 0.00 0.00 0.00 0.00 0.00 0.00 0.00 0.00 0.00 0.00 0.00 0.01 0.00 0.00 0.00
0.00 0.00 0.00 0.00 0.00 0.00 0.00 0.00 0.00 0.00 0.00 0.00 0.00 0.00 0.00 0.00 0.00 0.00 0.00 0.00 0.00 0.00 0.00 0.00 0.00 0.00 0.00 0.00 0.00 0.00 0.00 0.00 0.00 0.00 0.00 0.00 0.00 0.00 0.00 0.00 0.00 0.00 0.00 0.00 0.00 0.00 0.00 0.00 0.00 0.00 0.00 0.00 0.00 0.00
0.00 0.00 0.00 0.00 0.00 0.00 0.00 0.00 0.00 0.00 0.00 0.00 0.00 0.00 0.00 0.00 0.00 0.00 0.00 0.00 0.00 0.00 0.00 0.00 0.00 0.00 0.00 0.00 0.00 0.00 0.00 0.00 0.00 0.00 0.00 0.00 0.00 0.00 0.00 0.00 0.00 0.00 0.00 0.00 0.00 0.00 0.00 0.00 0.00 0.00 0.00 0.00 0.00 0.00
0.00 0.00 0.00 0.00 0.00 0.00 0.00 0.00 0.00 0.00 0.00 0.00 0.00 0.00 0.00 0.00 0.00 0.00 0.00 0.00 0.00 0.00 0.00 0.00 0.00 0.00 0.00 0.00 0.00 0.00 0.00 0.00 0.00 0.00 0.00 0.00 0.00 0.00 0.00 0.00 0.00 0.00 0.00 0.00 0.00 0.00 0.00 0.00 0.00 0.00 0.00 0.00 0.00 0.00
MSLP
1008.18 1007.69 1007.20 1006.70 1006.26 1005.83 1005.32 1004.78 1004.24 1003.69 1003.07 1002.44 1002.00 1001.66 1001.41 1001.33 1001.68 1002.66 1003.34 1003.81 1004.69 1004.82 1004.12 1003.79 1003.38 1003.28 1003.10 1003.60 1003.61 1002.42 1002.56 1002.76 1003.19 1004.10 1004.92 1004.56 1004.28 1003.40 1002.78 1001.88 1001.50 1001.73 1002.12 1002.79 1003.34 1003.22 1002.67 1001.86 1001.44 1001.12 1001.28 1000.86 1000.55 1000.18
1008.36 1007.81 1007.29 1006.80 1006.31 1005.80 1005.24 1004.82 1004.36 1003.82 1003.28 1002.80 1002.46 1002.15 1002.00 1001.95 1002.00 1002.84 1003.73 1003.52 1004.26 1004.64 1004.30 1003.42 1002.76 1002.26 1002.12 1002.40 1003.03 1002.52 1003.00 1003.10 1003.48 1003.92 1004.76 1004.50 1004.21 1003.68 1002.90 1002.03 1001.36 1001.76 1001.68 1001.87 1002.28 1001.88 1000.87 1000.82 1000.57 1000.36 1000.24 1000.35 1000.05 999.89
1008.48 1007.92 1007.46 1007.00 1006.52 1005.94 1005.39 1004.93 1004.46 1004.00 1003.46 1003.07 1002.78 1002.51 1002.33 1002.40 1002.73 1003.10 1003.60 1003.86 1004.21 1004.55 1004.26 1003.35 1002.10 1001.30 1001.23 1001.46 1001.67 1002.35 1002.50 1002.67 1002.87 1002.96 1003.63 1004.02 1003.91 1003.08 1002.41 1002.17 1001.28 1000.79 1000.57 1001.12 1001.22 1000.71 1000.22 1000.21 1000.03 999.79 999.37 999.27 999.25 999.21
1008.66 1008.19 1007.78 1007.40 1006.90 1006.36 1005.80 1005.37 1004.82 1004.31 1003.82 1003.44 1003.12 1002.96 1003.06 1003.05 1003.18 1003.37 1003.65 1003.96 1004.11 1004.36 1003.91 1002.16 1000.86 1000.58 1000.32 1000.64 1001.05 1001.47 1002.11 1002.48 1002.76 1003.00 1003.51 1003.70 1003.44 1002.22 1002.06 1001.59 1001.35 1000.77 1000.46 1000.90 1000.85 1000.28 999.77 999.72 999.15 998.62 998.38 998.27 998.57 998.63
1008.97 1008.61 1008.27 1007.86 1007.39 1006.95 1006.50 1005.96 1005.46 1005.00 1004.51 1004.05 1003.59 1003.56 1003.66 1003.68 1003.56 1003.59 1003.69 1003.81 1003.81 1004.20 1003.86 1002.55 1000.90 1000.25 1000.17 1000.55 1000.91 1001.32 1001.86 1002.38 1002.89 1003.20 1003.29 1003.23 1002.62 1002.23 1001.81 1001.45 1001.14 1000.58 1000.71 1000.94 1000.53 1000.12 999.85 999.30 998.31 997.74 997.58 997.56 997.95 998.14
1009.42 1009.08 1008.75 1008.37 1007.93 1007.49 1007.04 1006.61 1006.15 1005.70 1005.35 1004.96 1004.70 1004.50 1004.30 1004.11 1003.95 1003.80 1003.74 1003.82 1003.81 1003.73 1003.66 1002.77 1000.83 1000.32 1000.42 1000.64 1000.91 1001.20 1001.55 1002.07 1002.69 1002.98 1003.00 1002.48 1001.64 1002.04 1002.20 1001.78 1001.16 1001.16 1000.73 1000.69 1000.56 1000.07 999.69 999.01 998.08 997.40 997.08 996.77 997.27 997.52
1009.77 1009.43 1009.03 1008.63 1008.22 1007.81 1007.37 1006.90 1006.44 1006.06 1005.70 1005.35 1005.09 1004.80 1004.48 1004.27 1004.20 1004.06 1004.08 1003.91 1003.71 1003.76 1003.78 1003.00 1001.48 1000.80 1000.25 1000.56 1000.90 1001.17 1001.26 1001.79 1002.26 1002.55 1002.55 1002.18 1001.74 1001.66 1002.01 1002.18 1001.91 1001.38 1000.99 1000.52 1000.10 999.81 999.14 998.64 998.28 997.54 997.10 996.42 996.53 997.12
1009.93 1009.62 1009.26 1008.82 1008.34 1007.88 1007.41 1006.91 1006.42 1005.88 1005.38 1004.98 1004.72 1004.52 1004.28 1004.02 1004.06 1003.89 1003.71 1003.54 1003.50 1003.53 1003.32 1003.17 1002.17 1001.80 1001.57 1001.40 1001.80 1001.26 1001.73 1001.80 1002.02 1002.12 1002.00 1001.91 1001.60 1001.62 1002.10 1002.50 1002.21 1001.88 1001.38 1000.80 1000.46 1000.03 999.43 998.74 998.03 997.21 996.80 996.31 996.20 996.74
1009.99 1009.66 1009.32 1008.94 1008.51 1008.01 1007.47 1006.86 1006.20 1005.52 1004.92 1004.50 1004.29 1004.10 1004.16 1003.89 1004.02 1003.62 1003.39 1003.28 1003.28 1003.81 1003.51 1003.23 1002.72 1002.70 1002.80 1001.98 1001.70 1002.21 1002.13 1002.57 1001.93 1001.97 1001.85 1001.72 1001.88 1002.30 1002.82 1002.86 1002.55 1002.20 1001.72 1001.07 1000.12 999.33 998.49 997.86 997.55 997.05 996.77 996.37 996.26 996.38
1009.94 1009.60 1009.24 1008.89 1008.51 1008.06 1007.58 1007.02 1006.28 1005.35 1004.40 1003.91 1004.14 1004.13 1004.22 1003.84 1003.49 1003.43 1003.29 1003.48 1003.38 1003.11 1003.25 1003.04 1002.27 1002.55 1003.00 1002.28 1002.79 1002.91 1002.82 1002.93 1002.51 1002.02 1001.35 1001.63 1002.51 1002.73 1003.04 1003.05 1002.66 1002.20 1001.74 1001.17 1000.44 999.40 998.42 997.93 997.44 997.25 997.13 996.94 996.80 996.55
1009.72 1009.41 1009.08 1008.73 1008.35 1007.96 1007.52 1007.08 1006.55 1005.66 1004.44 1004.63 1004.68 1004.54 1003.88 1003.48 1003.69 1003.70 1003.98 1004.22 1003.54 1003.17 1002.73 1002.08 1001.72 1001.94 1002.05 1002.54 1003.22 1003.07 1003.27 1002.98 1002.76 1002.21 1001.87 1001.84 1002.46 1002.62 1002.84 1002.70 1002.42 1002.32 1001.98 1001.51 1000.91 1000.14 999.70 999.16 998.68 998.29 998.01 997.93 997.82 997.96
1009.46 1009.13 1008.83 1008.52 1008.17 1007.79 1007.40 1007.04 1006.65 1006.25 1006.09 1006.00 1005.88 1005.16 1004.21 1004.00 1004.16 1004.37 1004.17 1003.77 1003.46 1003.01 1002.94 1001.96 1001.64 1001.74 1002.24 1002.31 1003.04 1003.19 1003.30 1002.98 1002.41 1001.81 1001.99 1002.08 1002.36 1002.52 1002.64 1002.66 1002.52 1002.40 1002.13 1001.74 1001.39 1000.88 1000.54 1000.28 999.93 999.56 999.36 999.15 999.18 999.14
1009.19 1008.83 1008.46 1008.13 1007.82 1007.49 1007.18 1006.88 1006.54 1006.16 1005.44 1004.82 1005.30 1005.04 1004.68 1004.52 1004.78 1004.39 1004.22 1003.63 1003.41 1002.81 1002.53 1002.39 1002.38 1002.31 1002.33 1002.51 1003.22 1003.46 1003.30 1002.82 1002.00 1001.92 1001.82 1001.93 1002.25 1002.44 1002.74 1002.72 1002.64 1002.54 1002.36 1002.10 1001.82 1001.65 1001.39 1001.12 1000.86 1000.53 1000.16 1000.00 999.88 1000.04
1008.89 1008.51 1008.06 1007.70 1007.37 1006.90 1006.72 1006.53 1006.22 1005.88 1005.58 1005.11 1004.95 1005.14 1004.89 1004.52 1004.43 1003.82 1003.79 1003.57 1003.19 1003.00 1002.86 1002.83 1002.76 1002.77 1002.53 1002.83 1003.07 1003.48 1002.70 1002.38 1002.12 1001.91 1001.63 1002.00 1002.33 1002.64 1002.79 1002.77 1002.78 1002.69 1002.47 1002.26 1002.14 1001.95 1001.77 1001.66 1001.44 1001.19 1000.94 1000.68 1000.65 1000.76
1008.55 1008.06 1007.38 1006.77 1006.86 1006.74 1006.43 1006.08 1005.88 1005.85 1005.57 1005.06 1004.77 1004.80 1004.46 1004.20 1004.00 1003.76 1003.47 1003.37 1003.14 1002.82 1002.94 1002.97 1002.86 1002.80 1002.75 1003.02 1002.91 1002.75 1002.38 1002.00 1001.42 1001.38 1001.82 1001.94 1002.24 1002.66 1002.94 1003.01 1002.91 1002.77 1002.56 1002.35 1002.16 1002.06 1001.93 1001.79 1001.72 1001.68 1001.54 1001.32 1001.26 1001.33
1008.22 1007.61 1007.14 1006.82 1006.66 1006.36 1005.91 1005.49 1005.13 1005.07 1004.96 1004.74 1004.55 1004.43 1004.37 1004.42 1004.18 1003.87 1003.65 1003.42 1002.98 1002.85 1002.79 1002.92 1002.90 1002.95 1002.53 1002.44 1002.26 1002.04 1001.61 1001.20 1001.34 1001.54 1001.74 1001.87 1002.30 1002.71 1003.01 1003.05 1002.97 1002.76 1002.56 1002.42 1002.22 1002.10 1002.02 1001.96 1001.92 1001.94 1001.91 1001.86 1001.86 1001.81
1007.87 1007.38 1006.93 1006.84 1006.41 1005.70 1005.25 1005.24 1004.66 1004.58 1004.48 1004.46 1004.23 1004.04 1004.47 1004.42 1004.17 1003.81 1003.50 1003.27 1002.80 1002.95 1002.88 1002.68 1002.59 1002.21 1001.67 1001.65 1001.52 1000.82 1000.95 1001.08 1001.18 1001.59 1001.71 1001.95 1002.40 1002.85 1002.97 1002.98 1002.92 1002.80 1002.66 1002.55 1002.34 1002.10 1002.09 1002.00 1001.83 1001.92 1002.00 1002.16 1002.22 1002.26
1007.72 1007.14 1006.65 1006.43 1006.16 1005.53 1004.83 1004.65 1004.58 1004.21 1004.03 1004.04 1004.08 1003.96 1003.94 1003.90 1003.80 1003.37 1003.16 1002.80 1002.88 1002.75 1002.59 1002.57 1002.36 1001.76 1001.61 1001.43 1001.38 1001.44 1001.30 1001.31 1001.32 1001.59 1001.92 1002.19 1002.57 1002.89 1002.98 1002.97 1002.92 1002.87 1002.88 1002.70 1002.57 1002.47 1002.27 1002.13 1002.01 1001.91 1001.77 1001.94 1002.21 1002.35
1007.29 1007.04 1006.75 1006.58 1006.55 1006.37 1005.36 1004.30 1004.11 1004.08 1003.55 1003.33 1003.31 1003.41 1003.41 1003.28 1002.88 1002.70 1002.52 1002.38 1002.35 1002.35 1002.54 1002.46 1002.35 1001.97 1001.93 1002.18 1002.04 1001.65 1001.41 1001.44 1001.58 1001.77 1001.80 1002.02 1002.42 1002.64 1002.79 1002.84 1003.00 1003.08 1002.96 1002.92 1002.93 1002.89 1002.76 1002.73 1002.64 1002.48 1002.19 1001.97 1001.93 1001.84
1006.67 1006.40 1006.20 1006.13 1006.40 1006.12 1005.19 1004.11 1003.52 1003.82 1003.50 1003.14 1002.97 1003.15 1002.98 1002.84 1002.55 1002.36 1002.36 1002.29 1002.31 1002.41 1002.64 1002.73 1002.78 1003.03 1003.04 1003.03 1002.94 1002.50 1002.04 1001.97 1001.79 1001.79 1001.89 1001.92 1002.18 1002.37 1002.66 1002.93 1003.10 1003.01 1003.02 1003.12 1003.26 1003.30 1003.18 1003.06 1002.96 1002.74 1002.58 1002.25 1001.92 1001.73
1005.98 1005.38 1005.63 1005.90 1005.84 1005.90 1005.26 1004.36 1003.90 1003.39 1003.04 1003.01 1002.76 1002.72 1002.67 1002.35 1002.40 1002.60 1002.54 1002.09 1002.42 1002.54 1002.91 1003.44 1003.61 1003.72 1003.67 1003.54 1003.51 1003.20 1002.81 1002.39 1001.95 1001.96 1001.85 1002.04 1002.29 1002.34 1002.75 1003.10 1003.04 1002.98 1003.25 1003.53 1003.64 1003.77 1003.70 1003.64 1003.41 1003.03 1002.78 1002.42 1001.96 1001.61
1005.47 1005.42 1005.34 1005.28 1005.43 1005.03 1004.57 1004.04 1003.76 1003.44 1003.52 1002.94 1002.80 1002.49 1002.48 1002.60 1002.32 1002.41 1002.42 1002.66 1002.94 1003.54 1003.76 1003.94 1004.10 1004.06 1003.86 1003.74 1003.70 1003.57 1003.44 1003.16 1002.66 1002.53 1002.29 1002.44 1002.61 1002.65 1002.91 1003.07 1003.24 1003.44 1003.76 1004.02 1003.93 1004.04 1003.98 1003.81 1003.56 1003.25 1003.01 1002.71 1002.17 1001.52
1005.45 1005.31 1005.34 1005.16 1005.36 1005.12 1004.33 1003.52 1003.74 1003.42 1003.31 1002.94 1002.49 1002.62 1002.60 1002.75 1002.65 1002.32 1002.91 1003.10 1004.05 1004.45 1004.46 1004.46 1004.36 1004.16 1003.98 1003.80 1003.87 1003.91 1003.86 1003.66 1003.48 1003.40 1003.30 1003.20 1003.12 1002.97 1002.90 1003.21 1003.43 1003.73 1003.98 1004.05 1004.08 1004.16 1004.10 1003.87 1003.74 1003.58 1003.22 1003.06 1002.73 1002.17
1005.27 1005.20 1005.02 1004.91 1004.84 1004.43 1004.09 1003.90 1003.46 1003.26 1003.08 1003.18 1003.18 1003.19 1003.19 1003.24 1003.13 1003.29 1003.50 1004.06 1004.64 1004.74 1004.88 1004.86 1004.73 1004.49 1004.24 1004.05 1004.14 1004.34 1004.40 1004.19 1004.00 1003.72 1003.72 1003.52 1003.26 1003.14 1003.21 1003.43 1003.70 1003.93 1004.32 1004.53 1004.53 1004.55 1004.52 1004.36 1004.16 1004.02 1003.82 1003.52 1003.29 1002.96
1005.29 1005.03 1005.16 1004.51 1004.27 1004.30 1004.22 1003.79 1003.43 1003.35 1003.66 1003.77 1003.98 1004.14 1003.78 1003.74 1003.94 1003.81 1003.82 1004.64 1004.92 1005.24 1005.28 1005.27 1005.16 1005.04 1004.91 1004.68 1004.69 1004.96 1005.00 1004.90 1004.63 1004.49 1004.08 1003.96 1003.69 1003.09 1003.33 1003.94 1004.34 1004.68 1004.91 1005.00 1005.09 1005.08 1004.99 1004.80 1004.59 1004.46 1004.30 1004.11 1003.86 1003.53
1004.72 1003.76 1003.81 1003.21 1003.32 1003.46 1003.32 1003.36 1003.62 1003.88 1003.96 1004.53 1004.53 1004.31 1004.42 1004.63 1004.70 1004.51 1004.18 1004.56 1004.90 1005.28 1005.42 1005.52 1005.59 1005.49 1005.35 1005.37 1005.33 1005.45 1005.48 1005.22 1005.08 1004.69 1004.53 1004.42 1004.46 1004.41 1004.41 1004.60 1005.09 1005.54 1005.54 1005.53 1005.53 1005.49 1005.36 1005.14 1004.85 1004.68 1004.57 1004.44 1004.32 1004.00
1003.68 1002.74 1002.48 1002.31 1002.17 1002.51 1002.65 1002.90 1003.12 1003.60 1004.22 1004.49 1004.62 1004.76 1005.03 1005.28 1004.88 1004.12 1004.20 1004.19 1004.66 1004.98 1005.17 1005.36 1005.55 1005.71 1005.73 1005.76 1005.73 1005.75 1005.63 1005.55 1005.50 1005.33 1005.13 1004.97 1005.03 1005.18 1005.25 1005.38 1005.57 1005.94 1005.77 1005.73 1005.72 1005.70 1005.64 1005.41 1005.12 1004.91 1004.81 1004.64 1004.61 1004.16
1002.30 1001.56 1001.72 1001.98 1002.29 1002.39 1002.91 1003.14 1003.34 1003.45 1003.51 1003.73 1004.01 1004.41 1004.68 1004.45 1004.08 1003.69 1003.75 1003.93 1004.23 1004.52 1004.93 1004.89 1005.05 1005.42 1005.76 1005.94 1005.96 1005.98 1005.96 1005.88 1005.59 1005.26 1005.06 1005.38 1005.69 1005.81 1005.93 1006.00 1006.00 1005.99 1005.98 1005.89 1005.88 1005.80 1005.56 1005.35 1005.15 1004.89 1004.76 1004.78 1004.64 1004.07
1001.02 1000.83 1001.37 1001.96 1002.39 1002.51 1002.54 1002.68 1002.49 1002.32 1002.20 1002.58 1003.16 1003.41 1003.26 1002.81 1002.77 1002.85 1003.25 1003.42 1003.57 1004.23 1004.72 1005.02 1005.11 1005.32 1005.64 1005.80 1006.02 1006.26 1006.34 1006.45 1006.29 1005.54 1005.51 1005.99 1006.45 1006.64 1006.46 1006.59 1006.61 1006.42 1006.28 1006.21 1005.78 1005.63 1005.43 1005.22 1004.91 1004.70 1004.42 1004.32 1004.24 1004.20
1000.47 1000.51 1001.15 1001.70 1002.00 1001.97 1001.66 1001.67 1001.76 1001.64 1001.63 1002.00 1002.28 1002.33 1002.46 1002.50 1002.28 1002.09 1002.74 1003.05 1003.49 1004.02 1004.22 1004.62 1004.99 1005.53 1005.95 1006.08 1006.32 1006.84 1006.88 1006.89 1006.98 1006.94 1006.86 1006.98 1007.13 1007.19 1007.07 1007.09 1007.01 1006.85 1006.53 1006.41 1006.12 1005.80 1005.32 1005.16 1004.87 1004.53 1004.36 1004.35 1004.46 1004.69
999.77 1000.16 1000.75 1001.36 1001.62 1001.48 1001.43 1001.52 1001.87 1002.14 1002.42 1002.67 1002.70 1003.07 1002.99 1003.00 1002.64 1002.22 1002.34 1002.59 1003.01 1003.31 1003.82 1004.47 1004.92 1005.33 1005.69 1005.95 1006.38 1006.83 1007.42 1007.48 1007.46 1007.49 1007.46 1007.46 1007.51 1007.54 1007.59 1007.50 1007.30 1007.02 1006.78 1006.73 1006.49 1006.20 1005.82 1005.66 1005.56 1005.63 1005.36 1005.36 1005.46 1005.56
1000.03 1000.35 1000.68 1000.98 1001.34 1001.82 1001.84 1002.04 1002.31 1002.73 1002.76 1003.17 1003.26 1003.12 1003.20 1003.24 1003.27 1002.16 1001.51 1001.75 1002.46 1003.16 1003.37 1003.84 1004.54 1005.04 1005.18 1005.70 1006.15 1006.56 1006.95 1007.42 1007.70 1007.80 1007.82 1007.93 1008.04 1007.88 1007.83 1007.76 1007.55 1007.31 1007.18 1007.12 1006.91 1006.59 1006.44 1006.45 1006.50 1006.31 1006.08 1006.02 1006.27 1006.34
1000.45 1000.63 1000.78 1001.02 1001.50 1001.86 1002.18 1002.44 1002.66 1002.86 1003.04 1003.02 1002.87 1002.72 1002.75 1002.93 1002.60 1001.59 1001.24 1001.30 1001.85 1002.30 1002.86 1003.34 1003.63 1004.26 1005.04 1005.56 1006.10 1006.72 1006.74 1007.17 1007.51 1007.80 1008.01 1008.08 1008.11 1008.16 1008.14 1007.98 1007.86 1007.76 1007.84 1007.68 1007.46 1007.36 1007.43 1007.28 1007.34 1007.12 1006.95 1006.98 1007.15 1006.78
Thickness
5341 5341 5340 5338 5336 5332 5327 5323 5319 5320 5320 5319 5318 5319 5318 5319 5318 5315 5315 5317 5314 5317 5328 5338 5347 5345 5351 5347 5349 5365 5366 5370 5357 5342 5335 5336 5340 5351 5370 5380 5377 5372 5370 5371 5370 5366 5369 5386 5399 5393 5385 5392 5396 5400
5338 5338 5338 5336 5334 5332 5329 5324 5321 5321 5320 5319 5316 5317 5318 5320 5320 5317 5311 5319 5318 5317 5323 5337 5345 5352 5355 5357 5350 5361 5353 5359 5360 5357 5344 5345 5358 5367 5367 5374 5394 5372 5385 5367 5363 5359 5385 5387 5393 5397 5396 5390 5396 5398
5336 5336 5335 5333 5331 5331 5330 5328 5325 5323 5322 5320 5318 5319 5318 5318 5319 5318 5316 5319 5318 5318 5326 5330 5343 5356 5360 5360 5363 5353 5356 5364 5364 5366 5352 5354 5360 5364 5373 5376 5387 5399 5404 5364 5383 5394 5393 5385 5388 5393 5395 5394 5399 5402
5334 5333 5332 5330 5328 5328 5329 5328 5328 5327 5325 5324 5322 5321 5319 5319 5320 5320 5321 5321 5323 5321 5325 5338 5356 5357 5366 5366 5366 5364 5361 5358 5358 5359 5350 5348 5354 5375 5369 5376 5372 5378 5388 5379 5376 5387 5392 5389 5387 5398 5402 5404 5400 5401
5331 5329 5327 5326 5325 5325 5325 5326 5326 5327 5327 5327 5327 5324 5322 5322 5324 5324 5325 5325 5327 5326 5327 5336 5358 5367 5368 5366 5364 5361 5358 5354 5347 5343 5338 5343 5358 5357 5361 5370 5370 5384 5380 5351 5345 5375 5374 5382 5390 5400 5401 5402 5398 5393
5327 5326 5324 5322 5322 5321 5321 5321 5322 5324 5324 5325 5325 5324 5325 5326 5327 5329 5326 5329 5330 5331 5332 5335 5360 5366 5365 5362 5360 5359 5355 5350 5345 5343 5347 5354 5371 5362 5350 5355 5376 5365 5371 5369 5362 5370 5371 5374 5384 5392 5395 5402 5395 5393
5323 5322 5321 5320 5320 5319 5319 5320 5320 5321 5322 5324 5325 5326 5328 5329 5329 5328 5329 5330 5331 5330 5329 5326 5346 5359 5368 5364 5358 5357 5359 5352 5346 5344 5345 5351 5356 5355 5348 5348 5356 5361 5361 5362 5365 5362 5363 5369 5366 5378 5384 5397 5396 5392
5323 5320 5318 5318 5318 5318 5318 5319 5320 5322 5324 5326 5327 5328 5329 5330 5330 5331 5331 5332 5333 5333 5335 5322 5336 5346 5350 5349 5341 5355 5352 5351 5349 5343 5348 5349 5350 5352 5340 5345 5346 5345 5348 5351 5350 5351 5352 5358 5364 5372 5379 5386 5395 5393
5324 5321 5317 5315 5315 5315 5317 5319 5321 5324 5326 5328 5328 5329 5328 5329 5322 5330 5331 5331 5331 5327 5316 5325 5328 5325 5335 5346 5342 5340 5343 5323 5343 5337 5342 5346 5345 5343 5340 5335 5337 5336 5339 5343 5348 5352 5358 5361 5363 5370 5373 5379 5385 5392
5326 5323 5319 5316 5314 5313 5313 5315 5318 5324 5330 5332 5329 5328 5313 5327 5330 5329 5328 5319 5317 5328 5324 5325 5340 5332 5333 5336 5331 5324 5322 5321 5324 5333 5341 5331 5330 5339 5330 5328 5331 5332 5335 5338 5340 5346 5355 5356 5362 5363 5365 5368 5373 5385
5329 5326 5322 5319 5315 5313 5311 5311 5312 5318 5327 5323 5316 5321 5328 5329 5326 5319 5306 5301 5307 5316 5327 5336 5340 5334 5341 5324 5322 5321 5312 5323 5322 5339 5342 5339 5338 5339 5328 5326 5334 5331 5331 5331 5334 5339 5338 5340 5342 5347 5350 5350 5353 5357
5332 5329 5325 5321 5318 5315 5312 5309 5308 5308 5307 5307 5307 5314 5322 5320 5312 5315 5301 5315 5320 5332 5323 5335 5340 5341 5336 5333 5317 5318 5329 5331 5337 5339 5330 5342 5338 5333 5332 5327 5333 5330 5328 5328 5327 5327 5328 5326 5326 5329 5332 5335 5335 5338
5335 5332 5329 5325 5321 5318 5314 5311 5308 5306 5309 5312 5308 5312 5312 5307 5290 5309 5296 5318 5304 5328 5329 5328 5323 5329 5334 5325 5315 5320 5316 5311 5343 5326 5331 5346 5338 5337 5328 5329 5331 5329 5325 5325 5323 5319 5318 5317 5315 5314 5317 5320 5324 5326
5337 5335 5333 5330 5326 5324 5319 5315 5311 5308 5306 5303 5304 5289 5297 5295 5311 5320 5323 5321 5324 5324 5322 5321 5317 5317 5324 5321 5316 5315 5330 5338 5324 5319 5352 5339 5334 5327 5330 5330 5328 5325 5323 5322 5319 5317 5313 5310 5309 5307 5307 5309 5313 5317
5339 5338 5338 5337 5331 5326 5322 5319 5315 5310 5306 5305 5309 5290 5303 5314 5318 5318 5322 5320 5320 5325 5321 5312 5316 5320 5319 5322 5325 5330 5332 5324 5335 5341 5339 5337 5333 5328 5324 5323 5324 5323 5320 5321 5320 5317 5314 5312 5308 5305 5303 5303 5305 5307
5339 5339 5339 5336 5333 5330 5328 5325 5323 5318 5313 5312 5314 5307 5309 5304 5302 5307 5313 5313 5320 5313 5316 5318 5315 5309 5320 5327 5332 5324 5348 5336 5344 5339 5333 5333 5327 5323 5320 5320 5320 5323 5322 5320 5320 5317 5315 5312 5311 5307 5304 5303 5303 5305
5339 5339 5338 5334 5334 5335 5333 5327 5327 5323 5316 5321 5304 5308 5302 5300 5298 5302 5308 5312 5319 5314 5318 5323 5319 5313 5328 5334 5330 5334 5328 5331 5335 5332 5329 5329 5324 5316 5316 5317 5311 5315 5317 5316 5316 5317 5315 5313 5313 5311 5310 5306 5306 5306
5336 5338 5338 5336 5334 5335 5336 5333 5328 5328 5326 5316 5304 5301 5303 5299 5298 5299 5303 5310 5312 5312 5316 5317 5322 5333 5315 5339 5334 5332 5330 5328 5327 5325 5322 5319 5318 5315 5313 5311 5312 5311 5312 5311 5311 5310 5310 5310 5311 5310 5313 5309 5305 5304
5335 5334 5333 5331 5328 5325 5329 5337 5333 5324 5323 5320 5315 5315 5308 5301 5307 5308 5309 5310 5310 5311 5309 5308 5316 5321 5315 5311 5313 5317 5323 5321 5318 5313 5312 5313 5312 5306 5306 5305 5304 5302 5306 5303 5302 5301 5301 5299 5299 5299 5302 5305 5306 5308
5333 5333 5333 5330 5325 5325 5331 5334 5338 5328 5324 5322 5324 5315 5310 5306 5309 5303 5303 5306 5305 5298 5300 5304 5304 5297 5295 5296 5296 5301 5306 5305 5308 5307 5300 5297 5298 5299 5301 5295 5292 5294 5297 5295 5292 5290 5291 5291 5290 5291 5292 5295 5299 5300
5333 5335 5330 5327 5326 5323 5324 5327 5327 5329 5327 5321 5320 5322 5313 5315 5305 5299 5296 5300 5291 5293 5295 5284 5281 5278 5278 5279 5277 5281 5284 5289 5293 5292 5292 5292 5287 5290 5287 5282 5283 5286 5285 5280 5278 5278 5278 5277 5278 5281 5283 5285 5289 5292
5332 5328 5327 5326 5323 5328 5327 5329 5326 5327 5321 5322 5320 5322 5312 5300 5297 5297 5294 5286 5280 5279 5274 5271 5267 5261 5261 5264 5265 5263 5265 5267 5271 5271 5275 5275 5273 5273 5270 5270 5274 5272 5268 5263 5269 5267 5268 5268 5270 5271 5271 5275 5279 5285
5323 5323 5321 5322 5316 5316 5316 5331 5323 5323 5316 5321 5325 5320 5309 5300 5296 5295 5278 5280 5269 5260 5256 5252 5251 5251 5250 5250 5248 5246 5245 5246 5248 5249 5253 5254 5256 5259 5259 5262 5257 5254 5254 5257 5257 5258 5257 5259 5260 5260 5262 5259 5262 5270
5316 5315 5312 5315 5315 5309 5318 5313 5324 5327 5324 5318 5315 5300 5298 5291 5295 5284 5281 5265 5253 5251 5246 5243 5238 5238 5236 5236 5231 5227 5222 5223 5225 5229 5232 5237 5243 5246 5247 5247 5246 5246 5244 5242 5243 5245 5245 5244 5248 5248 5249 5251 5246 5251
5305 5306 5300 5300 5311 5309 5301 5307 5314 5319 5298 5304 5300 5283 5282 5294 5275 5276 5273 5256 5248 5235 5231 5229 5225 5222 5215 5215 5211 5203 5200 5197 5200 5203 5213 5217 5223 5232 5232 5230 5229 5228 5228 5228 5229 5229 5226 5233 5235 5236 5236 5237 5239 5237
5294 5308 5303 5312 5305 5307 5311 5300 5296 5291 5297 5283 5283 5292 5286 5270 5263 5252 5265 5244 5235 5230 5216 5211 5208 5205 5202 5199 5189 5182 5179 5181 5183 5189 5196 5200 5203 5205 5207 5213 5211 5205 5209 5212 5214 5216 5218 5220 5223 5225 5226 5226 5225 5226
5296 5308 5315 5316 5320 5317 5310 5309 5313 5296 5279 5269 5276 5273 5266 5242 5234 5252 5253 5246 5236 5227 5220 5212 5204 5196 5189 5184 5178 5171 5169 5169 5170 5173 5179 5184 5185 5187 5189 5190 5192 5191 5196 5199 5200 5202 5204 5205 5208 5212 5214 5216 5211 5216
5301 5313 5307 5303 5298 5306 5285 5290 5282 5276 5278 5291 5285 5262 5244 5242 5250 5261 5254 5246 5237 5228 5219 5210 5202 5191 5183 5174 5165 5159 5156 5156 5159 5164 5168 5169 5171 5172 5173 5175 5177 5180 5182 5185 5186 5189 5193 5195 5198 5201 5204 5198 5201 5206
5304 5310 5302 5287 5286 5290 5289 5284 5286 5293 5295 5291 5271 5267 5266 5278 5269 5262 5255 5248 5239 5226 5211 5200 5191 5186 5177 5168 5158 5151 5147 5144 5146 5157 5161 5157 5152 5151 5157 5159 5161 5165 5168 5171 5176 5179 5181 5182 5184 5188 5193 5196 5198 5199
5296 5301 5287 5280 5275 5283 5289 5291 5289 5291 5291 5287 5284 5283 5274 5269 5265 5263 5253 5242 5231 5219 5207 5196 5191 5178 5165 5159 5158 5141 5137 5135 5133 5135 5136 5137 5138 5138 5141 5143 5146 5150 5153 5157 5160 5164 5171 5173 5175 5178 5185 5182 5181 5179
5297 5292 5284 5276 5272 5282 5285 5282 5277 5275 5270 5267 5263 5257 5257 5254 5253 5252 5249 5240 5231 5222 5207 5198 5184 5173 5162 5152 5146 5145 5129 5128 5126 5126 5125 5126 5127 5129 5129 5131 5134 5139 5142 5144 5147 5152 5154 5156 5159 5161 5169 5172 5167 5166
5280 5277 5277 5275 5275 5267 5268 5268 5266 5263 5262 5255 5250 5250 5248 5245 5237 5243 5248 5242 5230 5218 5207 5201 5187 5171 5164 5156 5146 5135 5132 5125 5121 5119 5118 5117 5117 5118 5120 5122 5126 5129 5131 5133 5137 5141 5142 5142 5144 5148 5150 5158 5152 5149
5267 5266 5267 5266 5260 5260 5258 5257 5259 5257 5254 5253 5252 5249 5247 5244 5240 5245 5246 5241 5230 5219 5207 5196 5185 5178 5163 5153 5144 5133 5129 5122 5118 5115 5112 5111 5110 5110 5110 5113 5115 5116 5117 5120 5123 5123 5123 5125 5126 5130 5134 5133 5128 5130